BAW8763 EGLC-LSZH

Flight info

Callsign BAW8763
Flight time 1h 12m
Altitude 29000
Route SOQQA M87 UMTUM L9 DVR UL9 KONAN UL607 KOK DCT CIV DCT SUTAL DCT GTQ DCT BAMEV DCT BLM
Aircraft B463/M-SDFGIRWY/LB1

Departure

Time 2026-05-06 01:24
Airport London City Airport (EGLC)

Arrival

Time 2026-05-06 02:36
Airport Zürich Airport (LSZH)
Time Latitude Longitude Altitude Speed Heading
2026-05-06 00:38 51.50448 0.04504 30 ft 0 kts 316°
2026-05-06 01:15 51.50449 0.04502 25 ft 0 kts 316°
2026-05-06 01:15 51.50450 0.04502 25 ft 0 kts 316°
2026-05-06 01:20 51.50451 0.04500 25 ft 2 kts 316°
2026-05-06 01:21 51.50477 0.04453 25 ft 11 kts 301°
2026-05-06 01:21 51.50499 0.04334 25 ft 9 kts 274°
2026-05-06 01:21 51.50502 0.04252 25 ft 6 kts 276°
2026-05-06 01:21 51.50510 0.04193 26 ft 4 kts 237°
2026-05-06 01:22 51.50501 0.04219 25 ft 5 kts 87°
2026-05-06 01:22 51.50497 0.04352 25 ft 16 kts 99°
2026-05-06 01:22 51.50503 0.04440 26 ft 0 kts
2026-05-06 01:22 51.50525 0.04442 25 ft 10 kts
2026-05-06 01:23 51.50555 0.04497 25 ft 8 kts 96°
2026-05-06 01:23 51.50554 0.04514 25 ft 0 kts 92°
2026-05-06 01:23 51.50540 0.04972 25 ft 79 kts 92°
2026-05-06 01:24 51.50505 0.06236 36 ft 143 kts 94°
2026-05-06 01:24 51.50477 0.07954 458 ft 157 kts 92°
2026-05-06 01:24 51.50542 0.09607 1170 ft 155 kts 73°
2026-05-06 01:24 51.51229 0.11150 1532 ft 168 kts 44°
2026-05-06 01:25 51.51973 0.12321 2547 ft 154 kts 38°
2026-05-06 01:25 51.52916 0.13550 2868 ft 188 kts 36°
2026-05-06 01:25 51.53992 0.14907 3526 ft 205 kts 36°
2026-05-06 01:25 51.55103 0.16448 4306 ft 218 kts 52°
2026-05-06 01:26 51.55690 0.18724 5141 ft 226 kts 79°
2026-05-06 01:26 51.56014 0.21227 6036 ft 231 kts 77°
2026-05-06 01:26 51.56368 0.23728 6897 ft 234 kts 73°
2026-05-06 01:26 51.56924 0.26190 7743 ft 236 kts 66°
2026-05-06 01:27 51.57589 0.28604 8571 ft 239 kts 65°
2026-05-06 01:27 51.58301 0.31081 9209 ft 250 kts 64°
2026-05-06 01:27 51.59057 0.33653 9861 ft 260 kts 64°
2026-05-06 01:27 51.59858 0.36347 10409 ft 274 kts 64°
2026-05-06 01:28 51.60606 0.39223 11002 ft 285 kts 78°
2026-05-06 01:28 51.60620 0.42431 11636 ft 292 kts 98°
2026-05-06 01:28 51.60303 0.45682 12324 ft 297 kts 99°
2026-05-06 01:28 51.59958 0.48975 13024 ft 300 kts 100°
2026-05-06 01:29 51.59578 0.52286 13713 ft 302 kts 101°
2026-05-06 01:29 51.59007 0.55534 14337 ft 304 kts 119°
2026-05-06 01:29 51.57646 0.58133 14810 ft 309 kts 146°
2026-05-06 01:29 51.55692 0.59559 15191 ft 313 kts 170°
2026-05-06 01:30 51.53528 0.60074 15642 ft 316 kts 175°
2026-05-06 01:30 51.51328 0.60484 16103 ft 320 kts 175°
2026-05-06 01:30 51.49104 0.60877 16559 ft 323 kts 175°
2026-05-06 01:30 51.46867 0.61281 17015 ft 325 kts 175°
2026-05-06 01:31 51.44618 0.61720 17400 ft 329 kts 174°
2026-05-06 01:31 51.42328 0.62210 17697 ft 334 kts 172°
2026-05-06 01:31 51.40116 0.63407 17961 ft 342 kts 149°
2026-05-06 01:31 51.38353 0.65986 18253 ft 347 kts 129°
2026-05-06 01:32 51.36890 0.69075 18593 ft 349 kts 127°
2026-05-06 01:32 51.35459 0.72164 18922 ft 351 kts 127°
2026-05-06 01:32 51.34007 0.75310 19261 ft 353 kts 127°
2026-05-06 01:32 51.32535 0.78455 19580 ft 354 kts 128°
2026-05-06 01:33 51.31031 0.81585 19906 ft 355 kts 129°
2026-05-06 01:33 51.29499 0.84688 20229 ft 356 kts 129°
2026-05-06 01:33 51.27951 0.87783 20551 ft 357 kts 129°
2026-05-06 01:33 51.26390 0.90878 20870 ft 358 kts 130°
2026-05-06 01:34 51.24807 0.93949 21186 ft 359 kts 130°
2026-05-06 01:34 51.23217 0.97028 21502 ft 360 kts 130°
2026-05-06 01:34 51.21769 1.00272 21797 ft 361 kts 118°
2026-05-06 01:34 51.20782 1.03957 22092 ft 362 kts 110°
2026-05-06 01:35 51.20026 1.07787 22393 ft 362 kts 106°
2026-05-06 01:35 51.19403 1.11683 22692 ft 363 kts 103°
2026-05-06 01:35 51.18861 1.15615 22975 ft 363 kts 102°
2026-05-06 01:35 51.18356 1.19560 23259 ft 364 kts 101°
2026-05-06 01:36 51.17866 1.23514 23535 ft 364 kts 101°
2026-05-06 01:36 51.17376 1.27472 23806 ft 364 kts 102°
2026-05-06 01:36 51.16868 1.31421 24074 ft 364 kts 102°
2026-05-06 01:36 51.16359 1.35377 24331 ft 364 kts 100°
2026-05-06 01:37 51.16012 1.39373 24584 ft 364 kts 96°
2026-05-06 01:37 51.15800 1.43391 24833 ft 364 kts 94°
2026-05-06 01:37 51.15628 1.47420 25078 ft 364 kts 94°
2026-05-06 01:37 51.15474 1.51395 25312 ft 365 kts 93°
2026-05-06 01:38 51.15314 1.55423 25551 ft 365 kts 94°
2026-05-06 01:38 51.15139 1.59451 25773 ft 365 kts 94°
2026-05-06 01:38 51.14958 1.63478 25994 ft 365 kts 94°
2026-05-06 01:38 51.14775 1.67509 26211 ft 365 kts 94°
2026-05-06 01:39 51.14576 1.71534 26422 ft 365 kts 95°
2026-05-06 01:39 51.14358 1.75554 26628 ft 365 kts 95°
2026-05-06 01:39 51.14151 1.79583 26830 ft 365 kts 95°
2026-05-06 01:39 51.13955 1.83612 27026 ft 365 kts 94°
2026-05-06 01:40 51.13747 1.87640 27216 ft 365 kts 95°
2026-05-06 01:40 51.13527 1.91664 27407 ft 365 kts 95°
2026-05-06 01:40 51.13325 1.95696 27590 ft 365 kts 95°
2026-05-06 01:40 51.13115 1.99728 27769 ft 365 kts 95°
2026-05-06 01:41 51.12891 2.03755 27944 ft 365 kts 95°
2026-05-06 01:41 51.12683 2.07787 28115 ft 366 kts 95°
2026-05-06 01:41 51.12471 2.11766 28280 ft 366 kts 95°
2026-05-06 01:41 51.12242 2.15798 28442 ft 366 kts 95°
2026-05-06 01:42 51.12026 2.19830 28601 ft 366 kts 95°
2026-05-06 01:42 51.11815 2.23867 28755 ft 366 kts 95°
2026-05-06 01:42 51.11586 2.27902 28906 ft 366 kts 95°
2026-05-06 01:42 51.11353 2.31939 29045 ft 367 kts 95°
2026-05-06 01:43 51.10914 2.40083 29159 ft 373 kts 95°
2026-05-06 01:43 51.10426 2.48389 29187 ft 381 kts 95°
2026-05-06 01:44 51.09956 2.56886 29197 ft 390 kts 95°
2026-05-06 01:44 51.08817 2.65350 29205 ft 397 kts 114°
2026-05-06 01:45 51.06152 2.73116 29207 ft 404 kts 123°
2026-05-06 01:45 51.02971 2.80524 29198 ft 413 kts 126°
2026-05-06 01:46 50.99617 2.88034 29188 ft 421 kts 126°
2026-05-06 01:46 50.96219 2.95699 29191 ft 429 kts 126°
2026-05-06 01:47 50.92801 3.03542 29184 ft 436 kts 125°
2026-05-06 01:47 50.89313 3.11481 29186 ft 442 kts 126°
2026-05-06 01:48 50.85788 3.19527 29181 ft 447 kts 125°
2026-05-06 01:48 50.82199 3.27636 29188 ft 452 kts 126°
2026-05-06 01:49 50.80427 3.31624 29180 ft 441 kts 126°
2026-05-06 01:49 50.78722 3.35517 29165 ft 421 kts 126°
2026-05-06 01:49 50.77055 3.39288 29154 ft 405 kts 126°
2026-05-06 01:49 50.75462 3.42882 29152 ft 398 kts 126°
2026-05-06 01:50 50.72273 3.50034 29167 ft 399 kts 126°
2026-05-06 01:50 50.69074 3.57182 29177 ft 399 kts 126°
2026-05-06 01:51 50.65870 3.64326 29183 ft 399 kts 126°
2026-05-06 01:51 50.62661 3.71472 29185 ft 400 kts 126°
2026-05-06 01:52 50.59442 3.78624 29185 ft 401 kts 126°
2026-05-06 01:52 50.56255 3.85852 29185 ft 409 kts 124°
2026-05-06 01:53 50.53130 3.93432 29195 ft 417 kts 123°
2026-05-06 01:53 50.49973 4.01190 29189 ft 425 kts 123°
2026-05-06 01:54 50.46717 4.09044 29194 ft 433 kts 124°
2026-05-06 01:54 50.43380 4.16988 29188 ft 440 kts 123°
2026-05-06 01:55 50.40021 4.25081 29186 ft 445 kts 124°
2026-05-06 01:55 50.36595 4.33195 29189 ft 447 kts 124°
2026-05-06 01:56 50.33172 4.41374 29187 ft 451 kts 124°
2026-05-06 01:56 50.29740 4.49490 29183 ft 450 kts 124°
2026-05-06 01:57 50.26266 4.57654 29183 ft 451 kts 124°
2026-05-06 01:57 50.22820 4.65798 29180 ft 445 kts 124°
2026-05-06 01:58 50.19377 4.73896 29180 ft 450 kts 124°
2026-05-06 01:58 50.15899 4.82027 29184 ft 451 kts 124°
2026-05-06 01:59 50.12420 4.90143 29182 ft 451 kts 124°
2026-05-06 01:59 50.08958 4.98208 29180 ft 441 kts 124°
2026-05-06 02:00 50.05527 5.06192 29182 ft 447 kts 124°
2026-05-06 02:00 50.03830 5.10126 29486 ft 432 kts 123°
2026-05-06 02:00 50.02217 5.13851 29023 ft 412 kts 123°
2026-05-06 02:01 50.00598 5.17586 28831 ft 418 kts 123°
2026-05-06 02:01 49.98966 5.21345 28808 ft 421 kts 123°
2026-05-06 02:01 49.95679 5.28896 28796 ft 419 kts 123°
2026-05-06 02:02 49.92453 5.36311 28801 ft 417 kts 123°
2026-05-06 02:02 49.89179 5.43810 28836 ft 423 kts 123°
2026-05-06 02:03 49.85862 5.51384 28794 ft 423 kts 124°
2026-05-06 02:03 49.82538 5.58912 28787 ft 422 kts 123°
2026-05-06 02:04 49.79235 5.66429 28775 ft 422 kts 123°
2026-05-06 02:04 49.75955 5.73887 28775 ft 422 kts 123°
2026-05-06 02:05 49.72626 5.81423 28776 ft 426 kts 124°
2026-05-06 02:05 49.69246 5.88994 28767 ft 429 kts 124°
2026-05-06 02:06 49.65836 5.96605 28773 ft 432 kts 124°
2026-05-06 02:06 49.62409 6.04205 28774 ft 425 kts 124°
2026-05-06 02:07 49.59087 6.11568 28765 ft 420 kts 124°
2026-05-06 02:07 49.55767 6.19042 28773 ft 425 kts 124°
2026-05-06 02:08 49.52367 6.26541 28776 ft 429 kts 124°
2026-05-06 02:08 49.49007 6.34005 28768 ft 424 kts 127°
2026-05-06 02:09 49.47031 6.37357 28776 ft 425 kts 139°
2026-05-06 02:09 49.44660 6.40070 28779 ft 426 kts 148°
2026-05-06 02:09 49.39428 6.44324 28785 ft 423 kts 155°
2026-05-06 02:10 49.34044 6.47949 28800 ft 428 kts 157°
2026-05-06 02:10 49.28544 6.51552 28796 ft 431 kts 157°
2026-05-06 02:11 49.24630 6.54134 28794 ft 434 kts 157°
2026-05-06 02:11 49.19087 6.57833 28801 ft 436 kts 156°
2026-05-06 02:12 49.13527 6.61607 28805 ft 438 kts 157°
2026-05-06 02:12 49.07942 6.65392 28797 ft 440 kts 159°
2026-05-06 02:13 49.02345 6.69184 28812 ft 441 kts 160°
2026-05-06 02:13 48.97664 6.72253 28815 ft 441 kts 161°
2026-05-06 02:14 48.91027 6.76226 28814 ft 441 kts 162°
2026-05-06 02:14 48.85293 6.79588 28814 ft 442 kts 163°
2026-05-06 02:15 48.79569 6.82994 28827 ft 442 kts 163°
2026-05-06 02:15 48.73845 6.86396 28820 ft 442 kts 163°
2026-05-06 02:16 48.69079 6.89195 28817 ft 442 kts 163°
2026-05-06 02:16 48.63391 6.92536 28828 ft 414 kts 163°
2026-05-06 02:17 48.58724 6.95228 28816 ft 416 kts 164°
2026-05-06 02:17 48.53286 6.98372 28825 ft 420 kts 163°
2026-05-06 02:18 48.47822 7.01579 28834 ft 423 kts 163°
2026-05-06 02:18 48.42467 7.05256 28835 ft 436 kts 147°
2026-05-06 02:19 48.40352 7.08570 28739 ft 437 kts 130°
2026-05-06 02:19 48.38732 7.12391 28348 ft 428 kts 128°
2026-05-06 02:19 48.37092 7.16070 27947 ft 419 kts 131°
2026-05-06 02:19 48.35346 7.19511 27545 ft 410 kts 134°
2026-05-06 02:20 48.31683 7.25853 26745 ft 394 kts 138°
2026-05-06 02:20 48.29838 7.28847 26346 ft 387 kts 138°
2026-05-06 02:20 48.28005 7.31768 25932 ft 381 kts 139°
2026-05-06 02:21 48.26200 7.34632 25528 ft 375 kts 139°
2026-05-06 02:21 48.24417 7.37451 25123 ft 370 kts 138°
2026-05-06 02:21 48.22668 7.40243 24716 ft 365 kts 138°
2026-05-06 02:21 48.20923 7.43030 24330 ft 371 kts 137°
2026-05-06 02:22 48.19124 7.45877 23981 ft 382 kts 137°
2026-05-06 02:22 48.17247 7.48837 23359 ft 403 kts 137°
2026-05-06 02:22 48.15271 7.51967 22708 ft 422 kts 136°
2026-05-06 02:22 48.13270 7.55163 22224 ft 417 kts 136°
2026-05-06 02:23 48.11341 7.58260 21736 ft 396 kts 136°
2026-05-06 02:23 48.09503 7.61221 21107 ft 382 kts 136°
2026-05-06 02:23 48.07741 7.64058 20417 ft 372 kts 136°
2026-05-06 02:23 48.06002 7.66856 19740 ft 363 kts 136°
2026-05-06 02:24 48.04298 7.69589 19077 ft 355 kts 136°
2026-05-06 02:24 48.02621 7.72252 18429 ft 348 kts 137°
2026-05-06 02:24 48.00970 7.74848 17753 ft 342 kts 137°
2026-05-06 02:24 47.99342 7.77394 17047 ft 336 kts 137°
2026-05-06 02:25 47.97742 7.79894 16367 ft 331 kts 137°
2026-05-06 02:25 47.96165 7.82365 15710 ft 327 kts 137°
2026-05-06 02:25 47.94613 7.84812 15078 ft 323 kts 137°
2026-05-06 02:25 47.93076 7.87230 14462 ft 320 kts 137°
2026-05-06 02:26 47.91554 7.89621 13856 ft 317 kts 137°
2026-05-06 02:26 47.90045 7.91997 13206 ft 314 kts 137°
2026-05-06 02:26 47.88550 7.94361 12585 ft 312 kts 137°
2026-05-06 02:26 47.87071 7.96706 11952 ft 310 kts 137°
2026-05-06 02:27 47.85603 7.99043 11359 ft 307 kts 137°
2026-05-06 02:27 47.84143 8.01351 10779 ft 305 kts 138°
2026-05-06 02:27 47.82687 8.03632 10211 ft 303 kts 138°
2026-05-06 02:27 47.81242 8.05901 9599 ft 301 kts 139°
2026-05-06 02:28 47.79884 8.08053 8990 ft 278 kts 138°
2026-05-06 02:28 47.79524 8.08622 8835 ft 274 kts 138°
2026-05-06 02:28 47.78537 8.10164 8433 ft 265 kts 139°
2026-05-06 02:28 47.77287 8.12109 7937 ft 256 kts 139°
2026-05-06 02:29 47.76065 8.14001 7476 ft 251 kts 139°
2026-05-06 02:29 47.74862 8.15861 6985 ft 249 kts 139°
2026-05-06 02:29 47.73672 8.17720 6471 ft 248 kts 137°
2026-05-06 02:29 47.72527 8.19593 5915 ft 242 kts 136°
2026-05-06 02:30 47.71418 8.21433 5301 ft 237 kts 134°
2026-05-06 02:30 47.70289 8.23249 4678 ft 241 kts 138°
2026-05-06 02:30 47.69099 8.24994 4220 ft 239 kts 138°
2026-05-06 02:30 47.67912 8.26675 3960 ft 234 kts 139°
2026-05-06 02:31 47.66710 8.28326 3918 ft 237 kts 140°
2026-05-06 02:31 47.65492 8.29992 3893 ft 239 kts 139°
2026-05-06 02:31 47.64273 8.31671 3887 ft 239 kts 139°
2026-05-06 02:31 47.63045 8.33340 3873 ft 239 kts 139°
2026-05-06 02:32 47.61821 8.35011 3879 ft 239 kts 139°
2026-05-06 02:32 47.60616 8.36665 3876 ft 240 kts 139°
2026-05-06 02:32 47.59394 8.38343 3871 ft 239 kts 139°
2026-05-06 02:32 47.58183 8.40011 3874 ft 234 kts 140°
2026-05-06 02:33 47.57007 8.41620 3878 ft 227 kts 141°
2026-05-06 02:33 47.56235 8.42665 3644 ft 216 kts 140°
2026-05-06 02:34 47.53066 8.46991 2772 ft 160 kts 140°
2026-05-06 02:34 47.52319 8.48017 2571 ft 147 kts 139°
2026-05-06 02:34 47.51645 8.48946 2349 ft 133 kts 139°
2026-05-06 02:34 47.50968 8.49824 2140 ft 123 kts 140°
2026-05-06 02:35 47.50328 8.50679 2006 ft 126 kts 138°
2026-05-06 02:35 47.49692 8.51560 1841 ft 126 kts 137°
2026-05-06 02:35 47.49043 8.52430 1673 ft 126 kts 136°
2026-05-06 02:35 47.48415 8.53356 1530 ft 129 kts 141°
2026-05-06 02:36 47.47794 8.54209 1408 ft 113 kts 137°
2026-05-06 02:36 47.47282 8.54884 1388 ft 90 kts 139°
2026-05-06 02:36 47.46954 8.55323 1390 ft 49 kts 138°
2026-05-06 02:36 47.46746 8.55593 1396 ft 23 kts 150°
2026-05-06 02:37 47.46598 8.55679 1395 ft 23 kts 165°
2026-05-06 02:37 47.46452 8.55727 1401 ft 20 kts 167°
2026-05-06 02:37 47.46338 8.55816 1406 ft 17 kts 136°
2026-05-06 02:37 47.46256 8.55885 1405 ft 11 kts 208°
2026-05-06 02:38 47.46236 8.55764 1401 ft 16 kts 275°
2026-05-06 02:38 47.46202 8.55690 1401 ft 5 kts 183°
2026-05-06 02:38 47.46172 8.55685 1401 ft 5 kts 186°
2026-05-06 02:38 47.46155 8.55682 1401 ft 1 kts 185°